Murray, KY

9:39 PM CST on December 08, 2019 (GMT -0600)
Kyle-Oakley

Weather History for KCEY - October, 2019

Change the Weather History Date:

Saturday, October 26, 2019

  Actual Average (KPAH) Record (KPAH)
Temperature  
Mean Temperature 62 °F -  
Max Temperature 71 °F 67 °F 86 °F (1944)
Min Temperature 53 °F 42 °F 28 °F (1968)
Degree Days  
Heating Degree Days 3    
Growing Degree Days 12 (Base 50)    
Moisture  
Dew Point 59 °F    
Average Humidity 100    
Maximum Humidity 100    
Minimum Humidity 94    
Precipitation  
Precipitation 1.43 in - - ()
Sea Level Pressure  
Sea Level Pressure 29.70 in    
Wind  
Wind Speed 11 mph (SE)    
Max Wind Speed 23 mph    
Max Gust Speed 34 mph    
Visibility 6 miles    
Events      
Averages and records for this station are not official NWS values.
T = Trace of Precipitation, MM = Missing Value Source: NWS Daily Summary

Daily Weather History Graph

Daily Weather History Graph

Search for Another Location

Airport or City:

Astronomy

Oct. 26, 2019 Rise Set
Actual Time 7:10 AM CDT 6:03 PM CDT
Civil Twilight 6:44 AM CDT 6:29 PM CDT
Nautical Twilight 6:14 AM CDT 7:00 PM CDT
Astronomical Twilight 5:44 AM CDT 7:30 PM CDT
Moon 5:11 AM CDT (10/26) 5:34 PM CDT (10/26)
Length of Visible Light 11h 45m
Length of Day
10h 52m
Waning Crescent, 3% of the Moon is Illuminated
Oct 26
Waning Crescent
Oct 27
New
Nov 4
First Quarter
Nov 12
Full
Nov 19
Last Quarter

Hourly Weather History & Observations

Time (CDT) Temp. Dew Point Humidity Pressure Visibility Wind Dir Wind Speed Gust Speed Precip Events Conditions
12:15 AM 53.6 °F 53.6 °F 100% 29.99 in 7.0 mi NE 11.5 mph - 0.01 in   Unknown
12:35 AM 53.6 °F 53.6 °F 100% 29.97 in 8.0 mi NE 11.5 mph - 0.03 in   Overcast
12:55 AM 53.6 °F 53.6 °F 100% 29.96 in 6.0 mi NE 9.2 mph - 0.06 in   Overcast
1:35 AM 53.6 °F 53.6 °F 100% 29.93 in 5.0 mi NE 11.5 mph - 0.06 in   Overcast
1:55 AM 53.6 °F 53.6 °F 100% 29.92 in 3.0 mi NE 10.4 mph - 0.10 in   Overcast
2:15 AM 53.6 °F 53.6 °F 100% 29.90 in 3.0 mi NE 10.4 mph 16.1 mph 0.02 in   Overcast
2:35 AM 55.4 °F 55.4 °F 100% 29.89 in 3.0 mi ENE 9.2 mph 16.1 mph 0.04 in   Overcast
2:55 AM 55.4 °F 55.4 °F 100% 29.88 in 9.0 mi ENE 6.9 mph - 0.06 in   Overcast
3:15 AM 55.4 °F 55.4 °F 100% 29.86 in 9.0 mi ENE 10.4 mph - 0.01 in   Overcast
3:35 AM 55.4 °F 55.4 °F 100% 29.85 in 8.0 mi ENE 9.2 mph - 0.02 in   Overcast
3:55 AM 55.4 °F 55.4 °F 100% 29.83 in 10.0 mi ENE 8.1 mph - 0.04 in   Unknown
4:35 AM 57.2 °F 57.2 °F 100% 29.81 in 9.0 mi ENE 9.2 mph - 0.03 in   Overcast
4:55 AM 57.2 °F 57.2 °F 100% 29.80 in 10.0 mi ENE 8.1 mph - 0.03 in   Overcast
5:15 AM 57.2 °F 57.2 °F 100% 29.79 in 5.0 mi ENE 6.9 mph - 0.02 in   Overcast
5:35 AM 57.2 °F 57.2 °F 100% 29.79 in 3.0 mi East 6.9 mph - 0.08 in   Overcast
5:55 AM 57.2 °F 57.2 °F 100% 29.77 in 3.0 mi ENE 9.2 mph - 0.12 in   Unknown
6:15 AM 59.0 °F 59.0 °F 100% 29.76 in 10.0 mi ENE 8.1 mph - 0.01 in   Unknown
6:35 AM 59.0 °F 59.0 °F 100% 29.75 in 2.5 mi ENE 9.2 mph - 0.13 in   Unknown
6:55 AM 59.0 °F 59.0 °F 100% 29.74 in 5.0 mi ENE 9.2 mph - 0.17 in   Unknown
7:15 AM 59.0 °F 59.0 °F 100% 29.73 in 4.0 mi East 9.2 mph - 0.03 in   Unknown
7:35 AM 59.0 °F 59.0 °F 100% 29.71 in 2.5 mi ENE 10.4 mph - 0.17 in   Overcast
7:55 AM 59.0 °F 59.0 °F 100% 29.71 in 1.8 mi East 8.1 mph - 0.30 in   Overcast
8:15 AM 59.0 °F 59.0 °F 100% 29.71 in 2.5 mi East 5.8 mph - 0.03 in   Overcast
8:35 AM 60.8 °F 60.8 °F 100% 29.70 in 2.5 mi East 9.2 mph - 0.06 in   Overcast
8:55 AM 60.8 °F 60.8 °F 100% 29.69 in 1.2 mi East 6.9 mph - 0.12 in   Overcast
9:15 AM 62.6 °F 62.6 °F 100% 29.68 in 3.0 mi East 9.2 mph - 0.02 in   Overcast
9:35 AM 62.6 °F 62.6 °F 100% 29.66 in 3.0 mi East 9.2 mph - 0.03 in   Overcast
9:55 AM 62.6 °F 62.6 °F 100% 29.65 in 5.0 mi ESE 10.4 mph - 0.06 in   Overcast
10:15 AM 64.4 °F 64.4 °F 100% 29.63 in 2.5 mi ESE 8.1 mph - 0.02 in   Overcast
10:35 AM 66.2 °F 66.2 °F 100% 29.62 in 2.5 mi ESE 10.4 mph 20.7 mph 0.05 in   Overcast
10:55 AM 66.2 °F 66.2 °F 100% 29.59 in 9.0 mi ESE 8.1 mph 20.7 mph 0.07 in   Mostly Cloudy
11:15 AM 68.0 °F 68.0 °F 100% 29.58 in 10.0 mi ESE 11.5 mph 19.6 mph N/A   Overcast
11:35 AM 68.0 °F 68.0 °F 100% 29.57 in 10.0 mi ESE 8.1 mph 21.9 mph N/A   Overcast
12:15 PM 68.0 °F 68.0 °F 100% 29.54 in 10.0 mi SE 11.5 mph 21.9 mph N/A   Overcast
12:35 PM 68.0 °F 68.0 °F 100% 29.51 in 10.0 mi SE 8.1 mph 25.3 mph N/A   Overcast
12:55 PM 69.8 °F 69.8 °F 100% 29.49 in 10.0 mi SE 12.7 mph 24.2 mph N/A   Overcast
1:15 PM 71.6 °F 71.6 °F 100% 29.47 in 10.0 mi SE 16.1 mph 27.6 mph N/A   Overcast
1:35 PM 71.6 °F 71.6 °F 100% 29.45 in 10.0 mi SE 13.8 mph 24.2 mph N/A   Overcast
1:55 PM 64.4 °F 64.4 °F 100% 29.49 in 0.8 mi SW 20.7 mph 34.5 mph 0.21 in   Overcast
2:15 PM 64.4 °F 64.4 °F 100% 29.49 in 9.0 mi SW 23.0 mph 27.6 mph 0.01 in   Mostly Cloudy
2:35 PM 62.6 °F 62.6 °F 100% 29.53 in 1.8 mi SSW 20.7 mph 27.6 mph 0.04 in   Mostly Cloudy
2:55 PM 62.6 °F 62.6 °F 100% 29.57 in 1.5 mi SSW 12.7 mph 24.2 mph 0.07 in   Mostly Cloudy
3:15 PM 62.6 °F 62.6 °F 100% 29.51 in 6.0 mi West 8.1 mph - 0.01 in   Partly Cloudy
3:35 PM 62.6 °F 62.6 °F 100% 29.52 in 10.0 mi South 5.8 mph - 0.01 in   Clear
3:55 PM 64.4 °F 64.4 °F 100% 29.55 in 10.0 mi South 6.9 mph - 0.01 in   Clear
4:15 PM 66.2 °F 66.2 °F 100% 29.56 in 10.0 mi South 8.1 mph - N/A   Clear
4:35 PM 64.4 °F 64.4 °F 100% 29.59 in 10.0 mi SW 19.6 mph 26.5 mph N/A   Mostly Cloudy
4:55 PM 62.6 °F 60.8 °F 94% 29.59 in 10.0 mi SSW 11.5 mph 21.9 mph N/A   Overcast
5:15 PM 60.8 °F 60.8 °F 100% 29.60 in 10.0 mi SSW 13.8 mph 23.0 mph N/A   Overcast
5:35 PM 59.0 °F 59.0 °F 100% 29.63 in 10.0 mi SW 20.7 mph 25.3 mph N/A   Overcast
5:55 PM 57.2 °F 57.2 °F 100% 29.64 in 3.0 mi SW 16.1 mph 21.9 mph N/A   Overcast
6:15 PM 57.2 °F 57.2 °F 100% 29.66 in 2.0 mi WSW 12.7 mph 18.4 mph N/A   Overcast
6:35 PM 55.4 °F 55.4 °F 100% 29.66 in 5.0 mi SW 13.8 mph 18.4 mph N/A   Overcast
6:55 PM 55.4 °F 55.4 °F 100% 29.67 in 10.0 mi SW 12.7 mph 19.6 mph 0.01 in   Overcast
7:15 PM 55.4 °F 55.4 °F 100% 29.69 in 10.0 mi WSW 10.4 mph - N/A   Overcast
7:35 PM 55.4 °F 55.4 °F 100% 29.70 in 1.5 mi WSW 13.8 mph 19.6 mph N/A   Unknown
7:55 PM 55.4 °F 55.4 °F 100% 29.71 in 1.8 mi WSW 15.0 mph 20.7 mph N/A   Unknown
8:15 PM 53.6 °F 53.6 °F 100% 29.72 in 7.0 mi WSW 18.4 mph 23.0 mph N/A   Overcast
8:35 PM 53.6 °F 53.6 °F 100% 29.73 in 10.0 mi SW 12.7 mph - N/A   Overcast
8:55 PM 53.6 °F 53.6 °F 100% 29.75 in 10.0 mi SW 12.7 mph - N/A   Overcast
9:15 PM 53.6 °F 53.6 °F 100% 29.76 in 10.0 mi SW 15.0 mph - N/A   Overcast
9:35 PM 53.6 °F 53.6 °F 100% 29.77 in 4.0 mi SSW 11.5 mph 16.1 mph N/A   Overcast
9:55 PM 53.6 °F 53.6 °F 100% 29.78 in 5.0 mi SSW 12.7 mph 19.6 mph N/A   Overcast
10:15 PM 53.6 °F 53.6 °F 100% 29.79 in 7.0 mi SSW 12.7 mph - N/A   Overcast
10:35 PM 53.6 °F 53.6 °F 100% 29.80 in 10.0 mi SW 9.2 mph - N/A   Overcast
10:55 PM 53.6 °F 53.6 °F 100% 29.81 in 4.0 mi SW 12.7 mph - N/A   Overcast
11:15 PM 53.6 °F 53.6 °F 100% 29.82 in 4.0 mi SW 12.7 mph 19.6 mph N/A   Overcast
11:35 PM 53.6 °F 53.6 °F 100% 29.82 in 5.0 mi SW 11.5 mph - N/A   Overcast
11:55 PM 53.6 °F 53.6 °F 100% 29.83 in 10.0 mi SW 10.4 mph - N/A   Overcast